Wind_Speed
39 38 38 37 36 35 35 33 31 29 28 28 28 28 28 28 25 23 23 22 21 20 20 20 20 18 16 15 16 16 16 16 15 15 15 15 14 13 13 13 15 18
39 38 39 39 38 37 36 35 34 32 31 29 28 27 27 27 27 25 23 23 22 20 20 20 20 19 18 17 17 17 17 18 17 16 16 16 16 15 14 14 14 17
41 40 40 40 39 38 37 36 35 34 33 31 29 28 26 25 26 26 25 24 24 22 21 20 20 20 19 19 19 18 18 19 19 19 18 18 17 16 16 16 15 16
43 42 42 41 40 39 38 37 37 35 34 32 31 30 28 25 24 25 26 26 27 26 24 22 21 20 20 20 21 21 20 20 20 21 21 19 18 17 17 17 17 17
43 43 42 42 41 40 39 39 38 37 36 34 32 31 30 28 26 25 25 27 28 28 26 24 23 22 21 21 22 22 22 22 21 22 23 22 20 19 19 19 19 20
44 44 43 43 42 41 40 40 39 38 37 36 34 32 31 30 29 27 26 27 28 28 28 27 25 24 23 23 23 23 23 23 23 24 25 25 24 22 21 21 21 22
45 45 44 43 43 42 41 41 40 39 38 37 35 34 33 32 31 31 29 28 28 28 28 28 27 26 26 26 26 25 24 24 25 25 25 26 26 24 23 23 22 23
46 45 45 44 44 43 43 42 41 40 39 37 36 35 35 34 33 32 32 31 29 29 29 28 28 27 27 28 28 28 26 26 26 27 27 27 28 27 26 25 25 25
47 46 46 46 45 44 44 43 42 41 40 38 37 36 36 35 34 33 33 33 32 31 30 30 29 29 29 29 30 29 28 27 28 29 29 28 29 30 29 28 27 27
47 47 47 47 46 46 45 44 44 43 41 40 39 38 36 36 35 34 33 34 34 33 33 32 31 31 31 31 32 32 30 29 29 29 31 31 30 31 31 30 30 30
48 48 48 48 47 47 46 45 45 44 43 41 40 40 38 36 36 36 35 35 35 35 35 34 33 33 33 33 33 33 33 31 30 30 31 32 33 32 32 32 32 32
49 49 48 48 47 47 46 46 46 45 44 43 41 41 39 37 37 37 37 37 36 36 36 36 35 35 35 35 35 35 34 33 32 31 32 33 34 34 33 33 34 34
48 48 48 48 48 47 46 45 45 45 44 42 41 41 39 38 39 38 38 38 38 38 37 37 37 37 37 37 37 36 36 36 35 34 33 34 35 35 35 35 35 35
46 46 46 47 47 47 46 44 44 43 42 40 39 39 39 38 39 39 39 39 39 39 39 39 39 39 39 39 39 38 38 37 37 36 36 36 37 37 37 37 37 37
43 44 44 46 46 46 46 45 45 43 42 41 40 39 38 37 37 38 38 39 40 40 40 40 41 41 41 41 41 40 40 39 39 38 38 37 38 38 39 39 39 39
42 42 43 44 45 46 46 46 45 44 43 42 41 40 39 38 37 36 37 38 39 40 41 42 42 43 43 43 43 42 42 41 41 40 40 40 39 40 40 40 40 41
42 42 42 43 45 45 46 46 46 45 45 43 42 42 41 40 38 37 37 37 38 39 41 42 43 43 43 43 43 43 43 43 43 43 42 42 42 42 42 42 42 42
43 43 43 43 44 45 45 46 45 46 46 45 44 43 42 42 41 40 39 38 38 38 40 42 43 43 43 43 43 43 42 42 43 44 44 44 44 44 44 44 44 44
44 44 44 44 44 44 44 45 46 47 47 47 46 44 44 43 44 43 42 41 41 41 41 42 42 42 42 42 42 42 41 41 42 44 45 46 46 46 45 45 45 45
43 44 44 45 44 44 44 45 46 47 47 47 46 44 45 46 45 45 45 44 44 44 44 43 43 42 42 42 41 40 40 40 41 43 45 46 47 47 47 47 47 47
43 43 44 44 44 44 44 45 46 46 46 46 45 45 46 47 47 47 47 46 46 46 45 45 45 43 43 42 42 40 39 38 39 41 44 46 47 47 47 48 48 48
43 43 43 43 43 44 45 45 45 45 45 45 44 44 44 46 47 47 47 47 46 46 46 47 47 45 44 44 43 41 40 39 39 39 42 45 47 48 48 48 48 48
43 42 42 42 43 44 45 45 44 43 43 43 43 42 42 44 46 47 47 47 47 47 47 49 48 47 46 46 45 43 42 42 41 41 41 44 47 49 49 49 49 48
42 42 42 42 42 42 43 43 42 42 41 41 41 41 41 41 40 41 44 46 47 47 48 49 49 47 47 47 45 45 44 44 43 42 43 45 47 48 50 50 50 50
39 40 41 41 41 41 41 41 41 40 40 40 40 41 41 38 36 35 38 41 43 44 45 46 47 46 46 46 46 45 44 44 43 43 45 47 47 48 50 51 51 52
37 38 39 39 39 39 39 39 37 37 37 37 38 39 39 38 36 35 35 36 37 39 40 42 43 43 43 43 44 43 44 44 44 45 48 48 47 48 49 50 52 52
Wind_Direction
216 216 217 219 219 219 219 220 223 226 225 221 222 225 225 226 229 229 228 233 236 231 229 231 233 232 226 225 228 225 224 229 231 229 226 227 225 219 225 234 217 197
218 219 220 222 223 223 224 225 225 227 228 228 225 227 230 229 228 230 232 234 238 237 232 230 232 235 231 228 230 227 224 226 228 229 228 228 229 224 221 232 232 208
221 221 222 223 225 225 225 227 227 227 228 230 228 224 226 230 229 228 227 229 236 240 238 234 230 234 234 231 231 229 226 228 226 227 231 232 231 229 223 224 231 225
222 223 224 225 226 226 226 227 227 226 226 228 229 225 221 224 229 228 225 224 229 236 240 240 235 234 235 233 233 232 229 231 230 227 231 233 232 230 227 222 225 231
223 223 224 224 225 226 227 227 226 226 226 226 228 227 223 221 224 229 228 223 224 230 235 238 238 237 236 234 234 233 230 231 232 229 230 233 233 231 230 226 222 227
223 223 224 224 224 226 227 228 228 226 227 227 226 228 228 225 223 224 228 226 224 227 229 233 238 238 237 237 236 234 231 231 232 230 229 232 233 233 233 232 227 227
223 223 224 224 224 225 226 227 228 226 227 228 227 229 230 230 227 224 225 227 227 227 228 232 237 238 238 238 238 237 235 233 233 232 230 230 232 233 234 235 233 230
224 224 224 225 225 225 225 226 227 227 228 227 227 229 230 231 232 228 225 226 228 229 230 232 236 238 238 237 237 238 236 234 233 232 232 230 230 231 233 236 236 235
223 225 225 225 225 226 227 227 228 228 228 227 226 228 230 231 234 233 229 228 229 231 232 234 235 236 236 235 237 238 238 237 235 233 232 231 231 231 232 236 236 237
222 224 226 226 226 227 228 228 230 231 230 229 227 227 229 232 233 233 233 232 232 232 233 235 235 235 234 233 235 238 240 240 239 236 234 233 234 234 232 234 237 238
223 224 226 228 228 229 229 229 231 232 233 232 229 228 229 232 233 233 234 235 235 234 235 236 236 234 234 232 233 236 239 241 240 239 238 236 237 238 236 235 237 239
225 225 225 228 230 229 230 230 231 232 234 234 232 231 229 229 232 234 234 236 238 238 237 237 237 235 236 235 233 233 236 240 241 240 240 239 238 240 240 238 238 240
225 226 224 227 230 230 228 228 229 230 231 231 232 233 231 229 230 234 236 237 240 242 241 240 239 238 237 237 235 234 235 238 240 241 240 240 240 240 240 239 239 240
223 226 225 226 228 229 228 226 226 226 226 226 228 231 232 230 229 232 236 237 239 241 243 242 240 239 237 236 236 235 235 236 239 241 239 239 240 240 239 238 238 239
220 223 225 226 226 227 228 226 225 225 223 223 224 228 231 231 228 229 233 236 237 239 241 241 239 240 239 238 238 236 235 234 236 239 239 238 238 239 237 237 237 238
219 221 223 225 225 226 228 227 226 225 223 223 223 225 229 231 228 226 229 234 236 237 238 239 238 239 241 241 241 240 239 236 234 236 237 237 237 237 237 236 236 237
220 221 222 224 225 225 227 228 228 226 225 224 223 223 226 230 229 226 227 230 233 236 238 240 241 241 243 245 245 244 243 239 237 236 236 236 236 237 236 236 236 237
220 221 222 224 225 225 226 228 229 228 226 225 224 223 223 226 229 229 228 227 230 235 239 241 245 247 248 248 248 247 245 243 240 237 235 235 236 236 237 236 236 237
218 220 222 224 226 227 226 226 227 228 227 226 225 224 223 224 227 229 230 229 229 233 237 240 244 248 250 251 250 249 247 244 242 239 237 237 237 236 237 237 237 237
218 219 222 223 226 228 227 226 226 228 228 226 225 224 223 224 227 229 231 232 232 233 236 239 241 244 248 250 250 249 247 245 243 242 240 240 239 238 238 238 238 237
218 219 221 223 224 226 227 227 227 227 227 225 224 224 224 225 227 228 230 232 233 232 234 237 240 242 245 248 249 248 247 246 244 242 241 241 240 240 240 240 240 239
217 218 220 222 223 224 226 227 227 226 227 226 224 224 225 226 227 228 230 232 232 232 233 237 239 241 243 246 248 247 246 245 244 242 240 240 240 240 240 241 241 240
218 219 220 221 223 224 226 226 226 226 226 226 225 223 225 227 228 230 231 233 234 234 235 238 239 239 242 244 246 246 244 244 244 243 242 241 241 240 240 241 242 241
219 220 220 222 223 224 226 226 227 228 228 227 227 226 226 228 230 231 232 234 235 236 238 240 240 240 242 243 244 244 244 243 243 244 245 245 243 240 239 240 242 243
219 220 221 223 223 224 227 230 231 232 231 230 230 231 230 229 229 231 233 233 235 237 239 242 244 244 244 245 245 243 242 243 243 243 245 246 244 241 240 240 241 243
220 220 221 223 223 224 228 231 232 232 231 232 233 234 233 231 230 231 233 233 234 236 240 244 246 246 246 246 247 244 242 242 242 242 243 244 243 243 242 242 242 242
Height
1520 1523 1525 1528 1530 1533 1535 1537 1538 1540 1542 1544 1545 1547 1549 1550 1552 1554 1555 1557 1558 1560 1561 1562 1564 1565 1567 1568 1569 1570 1571 1571 1572 1572 1573 1573 1574 1575 1576 1577 1578 1579
1517 1519 1522 1525 1527 1529 1532 1534 1536 1537 1539 1541 1543 1545 1546 1548 1550 1552 1553 1554 1556 1557 1559 1560 1562 1563 1565 1566 1567 1568 1569 1570 1570 1570 1571 1572 1573 1574 1575 1575 1576 1577
1513 1516 1518 1521 1523 1526 1528 1531 1533 1535 1536 1538 1540 1543 1544 1546 1548 1549 1551 1552 1553 1555 1556 1558 1559 1561 1562 1564 1565 1566 1567 1568 1569 1569 1569 1570 1571 1572 1573 1574 1575 1575
1509 1511 1514 1517 1520 1522 1525 1527 1529 1531 1534 1536 1537 1540 1542 1544 1545 1547 1549 1550 1551 1552 1554 1556 1557 1559 1560 1562 1563 1564 1565 1566 1567 1568 1568 1568 1569 1570 1571 1573 1573 1573
1505 1507 1510 1514 1516 1519 1522 1524 1526 1528 1530 1533 1534 1537 1539 1542 1543 1544 1546 1548 1549 1550 1551 1553 1555 1556 1558 1559 1560 1562 1563 1564 1565 1566 1566 1566 1567 1568 1569 1570 1571 1572
1501 1504 1507 1510 1513 1516 1518 1520 1523 1525 1527 1529 1532 1534 1536 1538 1540 1542 1543 1544 1546 1548 1549 1550 1552 1554 1555 1556 1558 1559 1560 1561 1562 1563 1564 1564 1565 1566 1567 1568 1569 1570
1497 1500 1504 1507 1510 1513 1514 1517 1519 1522 1524 1526 1529 1531 1532 1535 1537 1539 1540 1541 1543 1545 1546 1548 1549 1551 1552 1553 1554 1556 1557 1559 1560 1561 1562 1562 1563 1564 1564 1565 1566 1567
1494 1497 1500 1503 1506 1508 1511 1513 1516 1518 1521 1523 1525 1527 1529 1531 1533 1536 1538 1539 1540 1542 1543 1545 1546 1547 1549 1550 1551 1552 1554 1555 1556 1557 1559 1560 1561 1561 1562 1563 1564 1564
1491 1493 1496 1499 1501 1504 1507 1509 1512 1514 1517 1520 1522 1524 1526 1528 1530 1532 1535 1536 1537 1539 1540 1542 1543 1544 1546 1547 1547 1549 1550 1552 1553 1554 1555 1557 1558 1558 1559 1560 1561 1561
1488 1490 1493 1495 1498 1500 1503 1506 1509 1511 1514 1516 1519 1521 1523 1525 1527 1529 1531 1532 1534 1535 1536 1538 1540 1541 1542 1544 1544 1545 1547 1548 1550 1551 1552 1553 1554 1555 1556 1557 1557 1558
1484 1486 1489 1491 1494 1497 1500 1503 1506 1508 1510 1512 1515 1517 1519 1521 1523 1525 1527 1528 1530 1531 1533 1534 1536 1538 1539 1540 1541 1542 1543 1545 1547 1548 1549 1550 1551 1552 1553 1554 1555 1555
1480 1483 1485 1488 1491 1494 1496 1499 1502 1504 1506 1508 1510 1513 1515 1518 1519 1521 1522 1524 1526 1528 1529 1530 1532 1534 1535 1536 1538 1539 1540 1542 1543 1545 1546 1547 1548 1549 1550 1551 1552 1553
1475 1478 1482 1484 1487 1490 1493 1496 1498 1501 1502 1505 1506 1508 1511 1513 1515 1517 1518 1520 1522 1523 1525 1526 1528 1530 1531 1532 1534 1535 1536 1538 1539 1541 1542 1543 1544 1545 1546 1548 1549 1550
1471 1474 1477 1480 1483 1486 1489 1492 1494 1497 1499 1501 1503 1505 1507 1509 1511 1513 1514 1516 1517 1519 1521 1522 1524 1525 1526 1528 1529 1531 1532 1533 1534 1536 1537 1538 1539 1541 1542 1543 1544 1545
1467 1470 1473 1476 1479 1482 1485 1487 1490 1493 1496 1498 1500 1501 1503 1505 1508 1509 1510 1512 1513 1514 1516 1518 1519 1520 1521 1522 1524 1526 1528 1529 1530 1532 1533 1534 1535 1536 1537 1538 1539 1540
1464 1467 1469 1472 1475 1478 1480 1483 1486 1489 1492 1494 1496 1498 1500 1501 1504 1506 1507 1507 1509 1510 1511 1512 1513 1514 1515 1517 1519 1521 1524 1525 1526 1527 1528 1530 1531 1531 1532 1533 1534 1535
1461 1464 1466 1468 1471 1474 1476 1479 1482 1485 1487 1490 1492 1495 1496 1498 1500 1502 1503 1504 1504 1505 1506 1507 1508 1509 1510 1512 1514 1516 1519 1521 1522 1523 1523 1524 1525 1526 1527 1528 1529 1530
1457 1460 1462 1465 1467 1470 1473 1475 1478 1481 1483 1485 1488 1490 1493 1494 1496 1497 1499 1501 1501 1501 1501 1502 1502 1504 1505 1507 1509 1511 1514 1516 1517 1518 1519 1519 1520 1521 1522 1523 1523 1524
1454 1457 1458 1461 1463 1466 1469 1472 1474 1476 1478 1480 1483 1486 1489 1491 1492 1493 1495 1497 1497 1497 1497 1497 1498 1499 1500 1501 1503 1505 1508 1510 1512 1513 1514 1514 1514 1515 1517 1518 1518 1520
1451 1453 1455 1458 1459 1462 1465 1467 1469 1471 1473 1477 1480 1483 1485 1486 1487 1489 1490 1491 1492 1493 1493 1493 1493 1494 1495 1496 1498 1500 1503 1505 1507 1508 1509 1509 1509 1510 1512 1512 1513 1515
1447 1449 1452 1455 1457 1459 1461 1462 1465 1467 1470 1473 1476 1478 1479 1481 1483 1484 1485 1486 1487 1488 1489 1489 1489 1490 1491 1492 1493 1495 1498 1500 1502 1503 1504 1504 1505 1505 1506 1507 1508 1510
1443 1446 1449 1451 1454 1456 1457 1459 1461 1463 1466 1469 1471 1473 1475 1477 1478 1479 1480 1481 1483 1484 1486 1485 1485 1487 1487 1488 1489 1491 1494 1495 1497 1498 1499 1499 1499 1500 1501 1502 1503 1504
1440 1442 1445 1447 1450 1451 1453 1455 1458 1461 1463 1465 1467 1470 1471 1472 1474 1475 1476 1478 1479 1480 1480 1480 1481 1483 1484 1484 1485 1486 1488 1490 1491 1493 1494 1493 1493 1495 1496 1497 1498 1499
1438 1440 1442 1444 1446 1448 1450 1452 1455 1458 1460 1462 1464 1466 1467 1469 1470 1472 1473 1474 1474 1475 1475 1476 1477 1479 1480 1480 1481 1482 1483 1484 1486 1488 1489 1488 1488 1490 1491 1492 1493 1493
1435 1437 1439 1441 1443 1445 1447 1449 1452 1455 1457 1459 1461 1462 1464 1467 1468 1468 1469 1470 1470 1471 1472 1472 1473 1474 1476 1476 1477 1479 1480 1480 1483 1484 1483 1482 1483 1485 1487 1487 1488 1488
1433 1435 1436 1438 1441 1443 1445 1447 1449 1452 1454 1455 1457 1459 1461 1463 1464 1465 1465 1466 1467 1468 1468 1468 1468 1470 1471 1472 1473 1474 1476 1477 1479 1478 1476 1476 1479 1481 1482 1482 1483 1483